Wind_Gust
17 17 19 21 20 18 17 18 18 21 18 17 19 18 18 17 17 15 15 16 17 18 19 19 19 19 21 20 18 18 19 21 21 21 23 23 19 18 21 22 19 16
16 16 18 19 19 19 18 18 17 18 19 17 15 16 16 19 19 20 19 16 16 17 17 18 19 20 19 19 19 19 20 22 22 22 22 23 22 21 20 19 15 17
16 17 18 18 21 22 23 21 18 18 18 16 14 16 18 15 21 21 22 21 18 17 18 19 20 20 20 19 18 16 20 21 23 22 22 23 21 21 19 15 16 17
18 18 19 18 20 21 23 23 21 18 17 16 13 13 13 17 19 23 22 22 20 17 18 19 19 19 20 21 20 18 19 23 23 21 22 20 20 20 18 19 18 22
19 20 19 19 19 20 21 22 23 21 18 18 15 9 15 16 15 22 21 22 19 17 18 20 20 20 19 22 22 21 20 20 19 20 21 20 20 19 22 21 23 25
20 20 20 20 19 19 21 21 24 23 19 17 17 13 12 10 16 20 21 21 19 20 19 20 20 20 21 21 24 25 24 23 20 21 24 24 21 20 22 22 24 24
20 20 20 21 21 22 23 21 22 23 20 17 17 17 15 13 16 18 19 20 22 20 21 22 21 21 21 22 23 24 27 24 23 25 25 24 23 23 20 18 19 21
20 19 21 22 22 22 22 23 22 23 22 20 19 18 15 17 17 16 17 15 17 24 22 23 24 23 21 21 23 24 24 26 25 26 25 25 24 24 22 20 20 20
22 21 22 21 21 22 22 24 25 24 24 22 22 19 17 17 18 18 17 13 17 23 25 24 28 27 22 22 24 24 26 26 25 25 26 26 23 24 25 24 22 25
22 22 22 22 22 21 21 22 24 25 25 26 22 20 20 19 18 19 18 17 21 28 27 26 29 26 22 22 24 25 26 27 26 27 27 26 25 25 24 25 26 26
22 22 22 22 22 22 21 22 21 23 23 24 25 22 19 19 20 18 19 24 23 25 24 25 26 26 22 22 23 23 25 25 26 27 27 27 26 25 19 25 24 26
23 23 23 22 22 22 21 22 23 22 23 24 25 26 23 22 20 22 22 22 24 24 28 29 21 16 20 21 22 23 24 24 24 24 25 27 26 25 25 24 25 25
23 22 23 22 22 22 22 22 22 23 24 25 25 26 25 25 23 22 21 23 24 24 25 26 19 21 18 19 23 26 25 23 27 25 22 25 24 24 19 21 22 27
22 21 21 22 22 22 22 23 23 23 22 23 23 24 24 25 25 24 24 23 24 24 25 23 16 18 17 23 25 26 25 20 22 18 23 19 13 18 19 21 24 24
23 21 22 23 23 23 23 23 24 24 24 23 21 21 21 23 24 25 26 26 25 23 25 20 20 17 21 23 26 26 23 22 19 18 18 18 22 22 22 22 24 24
24 23 24 24 24 24 24 24 25 25 25 25 25 24 24 24 25 24 25 25 27 28 23 18 20 22 15 11 13 22 21 19 21 22 19 18 20 23 23 24 25 23
25 25 25 24 24 24 24 25 27 27 26 25 25 26 27 26 26 27 26 25 26 27 29 23 17 18 13 11 13 18 18 18 15 14 16 19 24 26 25 25 25 23
26 25 25 25 25 26 25 25 26 27 27 26 25 25 25 24 25 25 25 25 24 24 24 24 21 19 23 22 19 15 14 18 18 17 20 26 26 25 24 22 23 22
26 26 26 26 25 25 24 26 26 27 27 26 26 25 23 24 24 25 24 25 25 25 24 21 19 17 23 21 19 17 17 19 20 19 23 22 24 24 24 25 21 21
26 26 26 25 24 25 25 26 26 27 26 25 25 24 24 24 23 24 24 24 25 24 24 23 19 18 23 22 19 14 14 17 21 23 20 22 22 23 22 23 23 22
25 25 26 26 25 25 25 25 26 25 25 25 26 25 26 25 24 24 24 24 25 25 25 23 20 20 23 22 20 15 12 14 20 19 20 21 24 20 20 22 21 24
25 25 25 25 25 24 24 24 23 24 25 25 24 24 24 24 24 25 25 25 26 25 25 25 23 20 26 25 21 16 11 13 14 16 18 18 15 13 16 16 15 15
25 25 24 25 25 25 25 24 25 25 24 24 23 24 24 25 25 24 23 23 25 27 28 26 24 23 27 26 22 15 8 13 14 16 17 18 17 17 14 11 10 10
24 24 24 25 25 26 27 26 25 24 24 24 22 22 23 24 23 24 24 23 24 26 30 26 25 24 26 26 21 18 11 13 16 10 11 14 12 10 14 17 17 19
23 24 23 24 25 24 24 25 25 25 23 23 24 21 21 22 22 24 25 25 24 24 25 28 26 23 27 28 22 24 19 9 11 12 16 17 17 17 16 16 19 19
23 23 23 23 24 24 23 24 24 24 25 24 23 24 24 21 21 21 24 26 25 23 26 26 27 25 29 30 25 27 23 17 17 20 19 20 21 20 17 22 21 19
Wind_Speed
9 8 9 9 9 8 7 5 5 10 8 8 8 7 9 5 4 6 7 7 9 10 10 11 10 10 10 11 10 9 10 11 11 11 10 10 10 11 10 12 12 8
9 9 9 9 9 9 9 8 7 7 8 9 6 6 6 8 6 8 10 8 8 9 9 10 10 11 11 10 10 10 10 10 12 10 11 13 10 9 10 13 10 7
9 10 10 10 10 13 13 11 9 8 7 6 6 6 6 4 6 6 9 12 10 8 10 10 10 11 11 10 10 9 10 11 11 10 11 12 10 9 10 8 6 8
10 10 10 10 10 11 11 12 11 9 7 6 5 6 4 4 5 7 7 12 11 9 9 10 11 10 11 12 11 8 10 12 12 11 11 9 9 10 9 7 7 8
11 11 10 10 10 10 11 11 13 11 8 9 7 4 5 5 7 5 6 8 10 9 9 10 11 11 10 11 12 10 9 10 10 11 11 11 9 10 10 10 11 9
10 11 11 11 10 10 10 11 13 12 9 7 9 6 4 4 5 4 8 9 9 10 10 10 11 11 11 10 11 12 11 11 10 11 11 10 9 9 9 11 12 13
11 10 11 11 12 12 12 12 12 12 11 8 7 8 6 6 6 5 7 9 8 8 8 12 12 11 10 11 11 12 13 13 12 14 13 9 10 11 10 9 10 11
12 10 10 10 12 12 12 13 12 11 12 11 10 8 7 7 8 8 8 9 6 6 7 10 13 12 11 11 12 12 13 12 13 14 13 13 12 12 13 9 11 11
12 12 12 12 12 11 11 12 13 14 13 12 11 10 8 7 7 8 9 7 8 8 7 9 11 15 12 11 11 13 14 13 13 14 13 14 12 12 13 13 12 9
12 12 13 12 12 10 12 12 12 12 13 14 12 10 10 9 8 9 9 10 9 9 9 10 16 15 12 11 12 12 12 13 13 13 11 12 13 13 13 13 13 12
13 12 12 13 12 11 12 12 12 12 11 13 13 11 10 9 9 9 8 7 7 8 10 10 14 14 13 9 10 10 12 12 12 12 13 14 12 12 11 12 13 14
13 13 13 13 13 12 12 12 11 11 13 12 14 14 12 11 10 10 10 10 9 11 12 16 13 8 9 9 12 13 13 13 12 12 12 12 13 11 13 10 10 12
13 12 12 12 12 12 11 11 12 11 11 12 12 14 14 13 13 12 10 12 13 11 13 13 9 5 9 11 13 13 13 12 9 8 8 6 11 13 10 11 12 10
12 12 12 12 12 12 11 12 12 12 12 11 11 11 12 13 13 13 12 12 12 13 12 9 7 2 9 10 13 13 10 9 9 9 5 9 6 8 9 8 9 8
12 11 12 12 13 13 13 13 12 13 13 12 12 11 10 12 13 14 14 14 14 13 12 10 7 7 6 8 11 13 10 10 10 6 6 4 7 11 11 9 9 9
12 12 12 12 13 13 13 13 13 13 13 14 14 13 13 13 13 13 13 14 15 16 13 8 5 7 10 10 9 9 9 5 4 4 9 9 9 11 8 9 11 10
12 13 13 13 13 13 13 14 15 14 14 14 13 14 15 14 14 15 14 13 14 14 15 12 7 5 13 11 12 12 8 8 6 6 7 7 10 10 10 14 15 11
13 14 13 14 13 13 13 14 14 14 14 14 13 14 13 13 14 14 14 13 12 13 12 10 9 13 18 19 17 14 8 7 7 6 6 9 10 11 11 12 10 11
14 14 14 13 13 13 13 13 14 14 14 14 14 13 13 13 13 13 13 13 13 14 13 11 10 14 19 18 15 14 13 9 6 7 7 9 11 12 13 8 7 7
14 14 14 13 13 13 13 13 13 13 14 13 13 13 13 13 13 14 13 13 13 13 13 12 10 14 18 19 17 13 11 8 10 12 11 11 11 11 9 10 11 10
14 13 13 13 13 13 13 13 13 12 13 13 12 13 14 13 13 14 13 13 14 13 13 12 9 16 19 18 17 14 10 7 9 10 8 8 11 10 8 9 12 11
14 13 13 13 13 13 13 13 13 13 13 13 12 12 12 12 13 13 13 14 14 14 13 13 12 16 21 21 18 15 9 6 7 8 9 10 9 6 5 6 5 4
13 13 13 13 13 14 14 13 13 13 13 11 11 11 12 13 13 13 12 12 15 15 16 14 13 16 21 22 19 14 7 4 5 7 6 8 7 5 3 2 2 4
12 13 13 13 14 14 15 14 13 11 12 12 12 11 11 12 12 12 13 12 14 15 16 15 14 16 21 22 19 16 10 6 7 5 1 5 4 4 4 8 9 12
12 13 13 13 13 13 12 13 13 13 12 11 11 11 10 10 10 11 13 13 13 13 18 17 14 15 22 23 19 20 13 2 4 6 6 6 8 7 7 7 8 10
12 13 13 12 13 13 12 11 11 12 13 12 11 11 11 10 10 10 13 13 14 13 12 14 16 13 18 25 20 22 20 8 6 8 9 9 10 9 8 10 9 9
Wind_Direction
328 328 318 315 310 304 290 283 295 290 277 262 266 286 289 315 278 265 234 230 230 223 216 217 219 224 224 219 209 211 214 213 207 206 203 198 199 200 201 209 213 212
331 327 323 314 309 306 301 299 277 259 269 276 285 293 317 314 334 314 283 257 236 231 227 222 221 226 229 226 215 208 214 212 213 210 203 198 197 189 209 205 207 206
335 329 324 322 319 318 313 307 297 287 288 291 290 288 279 299 304 284 281 277 256 238 236 228 224 226 228 226 225 212 212 217 214 207 208 207 198 194 198 187 197 215
338 331 325 320 317 316 317 312 305 301 294 281 273 279 281 288 280 267 266 264 263 258 241 232 227 225 224 227 222 216 211 219 218 209 212 212 198 196 186 180 204 217
337 334 330 323 316 312 310 306 305 304 319 305 284 263 288 285 275 275 272 275 274 266 251 237 224 220 219 227 228 221 210 215 220 216 217 218 205 197 190 188 196 204
340 334 331 324 320 316 310 307 304 303 305 293 287 273 249 241 245 249 273 271 266 268 269 256 233 216 217 217 224 229 222 218 217 215 213 215 208 199 202 196 201 200
339 338 332 333 330 325 317 309 306 306 307 290 284 284 262 254 249 230 248 254 258 260 259 257 245 229 217 218 223 225 228 228 223 221 221 218 215 206 197 195 198 210
342 339 337 336 332 327 322 318 314 312 307 300 293 286 285 271 264 256 248 250 255 257 249 278 283 256 227 224 223 224 227 227 228 225 224 223 216 214 206 202 204 206
343 341 341 339 335 331 328 327 323 318 310 307 299 293 287 278 267 261 257 258 252 248 246 245 256 256 239 228 225 226 226 225 225 224 223 221 212 209 214 211 202 209
346 343 340 341 336 334 331 326 320 316 313 307 305 300 292 283 270 255 251 248 254 253 250 244 243 249 245 234 229 229 229 231 226 222 222 221 217 208 212 212 207 203
349 347 343 341 338 335 332 328 325 320 313 308 307 305 297 285 280 269 248 247 255 262 254 246 248 243 241 231 236 235 233 231 231 230 228 226 217 213 209 220 212 209
351 349 347 342 340 336 333 331 329 328 327 324 319 309 305 299 287 280 273 257 235 248 255 246 240 250 251 239 240 231 231 230 228 226 224 225 222 223 220 215 219 217
353 351 347 344 344 340 335 334 334 333 333 330 333 329 320 307 299 293 281 272 265 244 245 265 255 216 263 251 237 234 232 227 222 233 234 250 250 223 211 211 219 211
356 353 346 349 348 346 344 340 336 337 336 334 331 330 331 330 323 313 303 294 288 277 274 279 283 251 258 252 252 248 246 238 234 230 222 236 221 221 217 221 220 219
355 355 350 355 355 353 354 350 345 343 340 338 338 336 336 335 331 327 319 311 302 289 282 271 290 282 252 260 260 255 244 247 239 229 219 210 226 231 226 230 228 215
356 355 352 357 356 356 358 354 353 352 347 343 343 342 341 338 334 332 331 330 326 316 300 285 275 280 261 257 295 280 269 262 238 234 239 222 223 228 227 239 240 222
357 355 356 360 357 358 357 356 356 354 351 350 348 347 342 340 339 340 339 336 330 328 329 324 294 278 327 283 245 253 256 258 273 233 185 210 230 235 228 220 215 211
356 358 359 0 1 0 359 358 357 356 356 353 352 349 346 342 343 342 339 337 334 330 328 330 345 9 351 345 321 298 263 231 232 236 223 215 228 226 229 224 213 212
358 360 1 2 3 360 0 1 358 358 357 355 353 349 346 346 344 345 343 342 341 337 331 333 328 7 349 336 333 323 297 262 242 213 221 231 227 221 216 207 222 215
2 0 1 1 3 2 1 2 0 360 359 357 352 352 350 347 348 348 349 347 347 340 335 334 330 359 344 331 321 323 316 283 241 229 228 225 221 212 205 208 203 191
4 3 2 1 4 4 2 3 3 359 360 358 356 358 354 352 350 351 353 351 351 349 341 335 338 359 344 331 318 310 305 294 260 238 220 221 232 227 202 215 209 193
7 5 4 3 6 5 3 4 3 2 356 355 356 358 358 356 355 356 356 356 356 354 348 340 337 355 342 331 322 304 299 285 272 253 233 221 214 197 206 199 201 186
10 7 7 7 8 8 9 7 4 3 359 358 358 358 358 0 357 0 358 358 358 358 357 343 337 347 341 332 326 319 292 270 286 274 254 225 190 192 215 119 61 202
9 10 7 7 7 8 5 7 9 7 4 3 1 358 359 357 0 2 4 3 1 0 358 350 343 345 343 336 334 327 287 246 223 242 114 53 47 116 85 62 34 14
9 8 7 4 5 5 2 5 5 7 8 4 5 5 0 356 2 3 4 6 5 3 2 1 348 344 347 344 344 360 335 2 61 95 60 52 45 45 51 57 41 27
8 4 5 3 0 3 8 5 4 4 5 8 8 7 5 4 1 2 5 6 4 4 10 8 2 349 355 349 357 11 355 3 43 63 64 56 50 34 25 28 27 29